Voltar ao catálogo

NOAA 17 DEB

AtivoPO
NORAD 48734·DEBRIS·🇺🇸 United States

Lançado Jun 24, 2002 de Vandenberg Space Force Base

Loading…

Próximas Passagens (próximas 24 horas)

TLE

AtualizadoSource: Space-Track

Época: Sep 14, 2026, 06:29 UTC

1 48734U 02032BT  26257.27075131  .00006924  00000-0  11440-2 0  9994
2 48734  98.7354 272.6345 0008397 152.4444 207.7207 14.70703273288494

Acompanhe NOAA 17 DEB em tempo real com AllMySat

Download on the App Store